Simultaneous Nadir Overpasses (SNOs) Predictions

Prediction of SNOs between FY3D and AQUA Satellite Orbit:

Table of predicted SNOs for the next 14.0 days since TLE Epoch: 10/15/2022
Index Date (FY3D) Time (FY3D) Lat,Lon (FY3D) SZA (FY3D ) Date (AQUA) Time (AQUA) Lat,Lon (AQUA) SZA (AQUA ) Distance(km) Time Diff (sec)
1 10/15/2022 20:29:47 77.07,-141.16 85.94 10/15/2022 20:29:53 77.06,-141.10 85.93 1.57 6
2 10/15/2022 21:20:15 -76.31, 29.13 94.90 10/15/2022 21:19:02 -76.30, 29.23 94.91 2.82 73
3 10/18/2022 11:06:04 77.18, -0.69 87.02 10/18/2022 11:06:39 77.19, -0.73 87.02 1.04 35
4 10/18/2022 11:56:34 -76.53, 169.30 93.72 10/18/2022 11:55:50 -76.52, 169.32 93.72 0.54 44
5 10/21/2022 01:42:25 77.43, 139.15 88.24 10/21/2022 01:43:28 77.44, 139.09 88.24 1.86 63
6 10/21/2022 02:32:56 -76.83, -50.93 92.44 10/21/2022 02:32:40 -76.83, -50.93 92.44 0.20 16
7 10/23/2022 17:09:18 -77.14, 88.76 91.18 10/23/2022 17:09:29 -77.13, 88.80 91.19 1.36 11
8 10/23/2022 17:59:43 76.20,-100.25 87.79 10/23/2022 17:58:36 76.21,-100.31 87.80 1.50 67
9 10/26/2022 07:45:36 -77.27,-130.88 90.13 10/26/2022 07:46:14 -77.28,-130.94 90.12 1.70 38
10 10/26/2022 08:36:08 76.66, 39.00 89.19 10/26/2022 08:35:27 76.65, 39.03 89.19 0.73 41
11 10/28/2022 22:21:55 -77.46, 9.24 89.03 10/28/2022 22:22:59 -77.47, 9.13 89.03 3.00 64



Historial Predications of SNOs between FY3D and AQUA
